Location: Banff
(51.1667°N, 115.5667°W)
Time: 07:06:26
(UTC+00:00)

N. Korean satellite - Pass Details

Date: 03 December 2022
Orbit: 407 x 442 km, 97.3° (Epoch: 04 February)

Event Time Altitude Azimuth Distance (km) Brightness Sun altitude
Rises 00:41:16 0° 190° (S) 2,448 10.6 -9.5°
Maximum altitude 00:46:28 29° 264° (W) 882 8.7 -10.3°
Drops below altitude 10° 00:49:34 10° 327° (NNW) 1,629 9.4 -10.7°
Sets 00:51:50 0° 338° (NNW) 2,518 10.2 -11.0°
